Wetbulb
37.63 39.41 39.97 42.62 44.06 44.62 45.12 46.08 46.77 47.13 46.74 44.87 43.52 42.55 42.47 43.19 44.93 45.77 46.51 46.51 46.91 47.52 46.90 46.78 46.87 47.20 46.78 46.78 48.00 47.79 46.93 46.71 47.35 45.61 46.27 47.16 48.12 48.39 49.58 50.53 51.32 54.24 54.24
35.53 38.66 40.89 42.08 44.14 44.50 45.06 45.78 46.82 46.86 46.05 44.57 43.36 43.09 42.18 43.57 44.57 45.43 45.99 46.76 46.97 47.45 47.75 46.71 46.93 46.98 46.69 47.28 47.41 47.00 46.55 46.64 47.48 44.96 44.03 42.50 44.74 47.24 48.40 48.82 50.33 50.99 54.55
36.06 36.41 40.38 41.81 42.64 43.46 44.40 46.17 46.53 46.58 45.25 43.97 42.59 42.25 43.82 44.06 43.71 44.35 45.13 46.27 47.27 47.59 47.96 47.62 47.45 47.43 47.39 47.14 46.98 47.18 46.91 45.24 46.26 46.18 45.01 41.26 40.39 44.42 46.46 46.86 48.56 49.33 51.20
35.02 35.58 39.39 41.20 42.42 43.60 44.21 45.27 46.21 45.91 44.86 42.81 40.88 40.68 41.86 41.76 42.91 43.41 45.07 46.22 47.31 47.49 48.48 48.70 48.43 48.15 48.36 47.72 47.93 50.05 47.05 45.77 44.49 45.99 48.92 46.75 46.22 44.34 42.42 45.95 46.97 49.36 50.33
38.12 37.61 38.92 41.91 42.76 43.69 43.80 44.56 45.24 44.70 43.97 41.97 40.53 42.45 42.08 42.97 43.48 44.44 46.09 46.36 46.93 47.53 48.53 48.70 48.31 48.15 48.94 48.83 49.31 47.48 46.19 46.22 45.53 45.12 45.12 44.87 45.36 44.91 45.93 44.67 45.90 48.02 48.74
38.34 38.95 39.99 41.27 42.43 43.20 44.07 44.45 44.16 44.17 43.63 41.63 42.41 43.05 42.22 42.76 42.78 43.80 45.09 48.31 49.96 48.34 47.82 48.59 48.04 48.49 48.74 48.79 51.01 46.87 45.78 45.78 45.92 45.90 45.82 46.11 46.46 44.98 47.57 47.16 48.09 48.41 47.17
37.64 38.25 38.92 40.62 41.68 42.27 43.72 44.55 43.97 43.68 43.26 40.88 42.02 42.86 43.15 43.07 42.90 43.63 45.33 48.08 48.61 49.20 49.36 48.96 47.77 48.13 48.65 49.63 49.75 46.43 45.90 45.99 45.50 45.21 45.81 46.94 47.18 48.33 49.27 48.97 48.39 47.78 46.28
37.55 38.36 39.17 39.44 40.01 41.78 42.10 42.13 43.17 43.26 42.80 40.70 41.04 42.23 43.15 43.79 43.99 44.52 45.50 49.07 49.54 50.18 48.04 48.87 50.59 48.38 48.09 48.39 48.56 48.41 46.06 46.08 45.68 45.09 45.55 46.62 47.56 49.23 49.58 49.38 48.78 46.20 45.50
37.15 37.80 38.81 39.47 41.12 40.98 41.32 41.61 41.80 42.18 41.93 40.66 39.85 40.86 42.27 43.07 43.58 44.13 44.78 45.28 46.42 47.78 47.50 47.41 47.74 47.14 47.32 47.50 47.58 48.76 47.69 44.94 44.95 45.07 45.68 46.26 47.39 47.81 47.63 48.04 48.78 46.71 44.59
37.75 38.19 38.58 39.50 41.02 40.92 41.22 41.61 42.01 41.84 41.79 40.53 39.16 40.63 41.42 42.66 43.29 43.55 43.53 44.12 45.11 45.99 46.19 46.03 46.19 46.52 46.93 47.58 47.85 48.44 48.12 46.83 44.38 45.52 44.41 44.84 45.70 46.26 47.68 48.70 48.35 49.02 47.74
37.30 38.04 39.00 40.01 40.44 40.67 40.86 41.09 41.14 41.33 40.79 39.81 38.87 39.21 40.78 42.17 42.93 43.10 43.44 44.16 44.95 45.28 45.51 45.80 45.87 45.71 45.46 45.69 45.44 46.59 47.05 46.56 45.60 44.06 44.08 44.24 44.92 44.98 45.05 45.85 47.00 47.43 48.50
37.63 37.92 38.57 39.10 39.66 39.91 40.17 40.12 40.52 40.75 41.16 40.43 39.40 39.11 40.35 41.48 41.94 42.76 44.38 45.50 44.62 44.94 45.36 45.48 45.01 44.53 44.34 44.53 44.14 43.98 44.27 44.96 45.46 46.30 46.76 46.25 46.61 45.26 44.86 43.82 43.41 43.74 44.91
36.53 37.07 37.82 38.29 38.44 38.87 39.32 39.68 40.06 40.52 41.31 41.31 40.38 39.32 39.25 40.53 41.69 42.95 44.32 45.00 44.10 44.08 44.25 44.21 43.40 42.93 43.21 43.13 43.27 43.26 42.82 43.98 45.78 46.44 47.07 47.47 47.63 46.94 46.67 46.19 45.39 44.58 45.28
35.98 36.08 36.04 36.43 36.99 37.92 38.32 38.59 39.11 39.64 40.35 40.98 40.59 39.57 39.21 40.06 41.40 42.96 43.95 44.35 44.27 43.53 43.28 42.73 42.27 42.11 41.92 42.27 42.42 42.43 41.79 42.15 44.21 46.32 47.99 48.10 47.60 46.37 46.14 46.50 46.43 46.12 45.58
35.04 35.24 35.21 35.39 35.78 36.10 36.83 37.72 38.21 38.82 39.34 40.06 39.93 39.75 40.03 40.09 40.69 41.22 42.77 43.74 43.32 43.14 42.61 41.55 41.24 41.01 41.21 42.56 41.21 41.40 40.68 40.52 40.88 42.37 43.84 44.71 44.96 45.16 46.18 46.35 45.21 44.59 44.26
34.43 34.84 35.05 35.20 35.55 35.48 35.76 36.68 37.23 37.91 38.43 38.70 39.08 39.60 39.23 39.01 39.36 40.06 40.69 40.89 40.64 40.70 40.61 40.46 40.23 39.78 41.69 44.24 45.58 44.68 40.22 40.15 39.92 39.46 40.99 41.75 43.12 43.93 45.16 46.60 45.65 44.36 42.53
33.68 33.70 33.87 34.11 34.54 34.91 35.91 35.53 36.52 36.68 36.41 37.24 38.34 38.71 38.55 38.03 38.13 38.52 38.91 38.74 38.50 38.51 38.30 38.27 38.47 38.35 38.68 43.59 45.25 45.92 41.86 39.78 38.80 38.11 38.32 39.91 41.98 42.31 40.35 42.58 45.70 44.21 43.18
33.12 34.15 34.02 34.39 34.94 34.14 34.45 34.19 34.58 34.53 35.16 35.80 36.71 37.79 37.73 37.42 37.16 36.40 36.31 36.24 36.20 36.32 36.40 36.66 37.02 37.04 38.26 42.70 44.16 45.14 41.03 38.98 38.04 37.27 36.86 37.07 37.91 38.75 39.57 38.79 37.66 38.22 37.78
32.82 32.87 33.23 33.22 33.36 33.61 34.28 32.64 33.32 33.16 33.63 34.73 35.32 36.51 36.69 36.42 36.04 35.17 34.78 34.36 34.01 34.15 34.60 35.61 35.75 35.45 36.52 41.06 42.89 43.02 38.43 37.35 36.93 36.83 36.22 35.81 36.23 40.10 42.54 36.98 34.66 33.61 34.47
32.93 33.26 34.08 33.73 32.47 34.04 33.63 31.67 32.37 32.28 33.30 34.54 35.58 35.97 36.10 35.58 35.00 34.83 34.43 33.94 33.44 34.03 34.16 34.13 34.41 36.76 35.50 39.39 41.59 42.10 37.37 35.70 35.95 35.49 35.39 39.70 37.81 40.69 42.52 36.64 33.14 31.23 31.83
33.02 33.99 33.29 32.86 33.16 33.88 33.21 32.08 32.21 32.20 34.47 35.12 35.70 36.07 35.81 35.11 34.72 34.00 33.27 33.14 32.75 32.62 32.21 32.45 32.94 33.10 34.34 34.83 40.28 41.77 37.63 36.98 35.06 34.45 34.56 34.40 39.70 41.13 42.82 42.83 33.00 32.82 32.45
33.14 33.77 32.49 33.02 34.19 33.35 31.80 31.98 31.49 33.76 33.78 34.13 34.55 34.39 34.16 34.60 35.39 33.63 33.29 32.69 31.84 30.80 30.55 30.30 31.05 31.89 32.18 36.85 38.63 40.68 41.40 40.41 35.69 35.12 34.96 34.31 39.13 40.20 41.25 42.14 41.22 40.22 38.46
32.73 33.05 32.26 32.82 33.18 33.48 32.31 31.25 33.34 33.51 32.71 31.65 31.24 31.53 32.04 32.33 32.67 32.44 32.51 32.07 31.53 30.57 30.94 30.83 30.68 31.93 32.78 32.05 37.68 40.09 41.13 41.94 39.61 37.40 36.95 38.40 38.90 39.89 39.92 41.26 41.50 40.69 33.11
32.29 32.85 32.29 31.97 32.26 32.94 32.51 31.55 32.44 32.85 32.31 31.48 31.27 31.66 31.55 33.60 32.85 32.41 32.66 31.72 31.31 30.97 31.39 31.08 30.90 31.80 31.40 31.33 31.57 31.92 32.13 36.01 36.62 38.77 38.69 39.32 38.74 38.55 36.30 36.56 37.93 34.06 30.65
33.15 33.02 31.68 31.79 32.20 33.21 32.91 32.83 32.94 31.84 31.94 32.54 32.87 32.82 33.22 32.53 32.32 32.49 32.17 31.63 32.22 33.54 32.56 32.39 31.98 31.18 32.07 32.98 36.55 36.21 32.85 31.58 33.04 34.71 31.33 32.21 32.73 31.18 30.82 30.58 30.45 30.34 29.75
33.00 32.13 32.08 31.69 32.56 33.04 33.61 34.49 34.72 33.05 32.39 32.49 33.08 33.14 33.15 32.10 31.92 31.53 32.54 36.66 38.38 39.48 40.07 40.41 38.56 36.12 37.96 39.51 40.59 41.15 41.12 41.38 41.46 34.62 30.69 30.00 30.41 31.16 31.25 30.64 30.60 29.84 31.08
MSLP
1019.71 1019.67 1019.66 1019.86 1020.18 1020.48 1020.69 1020.76 1020.93 1021.05 1021.19 1021.30 1021.53 1021.57 1021.67 1021.39 1021.17 1020.85 1020.57 1020.35 1020.18 1019.95 1019.74 1019.63 1019.41 1019.20 1019.14 1019.00 1018.80 1018.56 1018.40 1018.19 1017.84 1017.59 1016.86 1016.17 1015.66 1015.53 1015.27 1014.98 1014.70 1014.31 1013.85
1019.85 1019.68 1019.70 1019.96 1020.21 1020.51 1020.71 1020.80 1020.88 1021.03 1021.12 1021.21 1021.38 1021.54 1021.55 1021.40 1021.29 1020.92 1020.57 1020.29 1020.17 1019.92 1019.65 1019.63 1019.46 1019.20 1019.09 1018.93 1018.80 1018.65 1018.62 1018.36 1017.98 1018.06 1017.61 1017.02 1016.34 1015.53 1015.04 1014.90 1014.63 1014.29 1013.76
1019.70 1019.66 1019.76 1020.08 1020.34 1020.51 1020.66 1020.71 1020.73 1020.84 1020.99 1021.08 1021.23 1021.33 1021.36 1021.24 1021.18 1020.99 1020.53 1020.21 1020.08 1019.85 1019.70 1019.53 1019.34 1019.16 1019.03 1018.92 1018.84 1018.61 1018.59 1018.60 1018.21 1018.00 1018.10 1017.64 1017.52 1016.62 1015.46 1014.99 1014.74 1014.43 1013.98
1019.66 1019.70 1019.77 1020.00 1020.21 1020.26 1020.46 1020.54 1020.62 1020.65 1020.80 1020.87 1021.08 1021.36 1021.45 1021.54 1021.23 1020.96 1020.48 1020.11 1019.90 1019.80 1019.68 1019.51 1019.25 1019.05 1018.85 1018.64 1018.55 1018.42 1018.42 1018.48 1018.48 1018.10 1017.69 1017.76 1017.69 1017.39 1016.48 1015.35 1014.80 1014.47 1014.06
1019.78 1019.71 1019.80 1019.93 1020.04 1020.25 1020.30 1020.40 1020.45 1020.42 1020.60 1020.75 1020.98 1021.14 1021.24 1021.15 1020.93 1020.70 1020.28 1019.98 1019.75 1019.68 1019.52 1019.36 1019.21 1018.87 1018.50 1018.44 1018.33 1018.32 1018.27 1018.24 1018.28 1018.26 1017.97 1017.67 1017.35 1017.10 1016.93 1016.01 1015.25 1014.37 1013.92
1020.08 1020.00 1019.97 1020.03 1020.10 1020.18 1020.12 1020.25 1020.34 1020.24 1020.38 1020.57 1020.66 1020.75 1020.86 1020.89 1020.88 1020.57 1020.26 1019.80 1019.62 1019.41 1019.33 1019.30 1019.14 1018.84 1018.49 1018.39 1018.05 1018.00 1018.12 1018.12 1018.10 1017.95 1017.84 1017.68 1017.37 1016.89 1016.63 1016.12 1015.52 1014.93 1014.12
1020.41 1020.41 1020.29 1020.22 1020.20 1020.16 1020.04 1020.17 1020.14 1019.99 1020.11 1020.33 1020.40 1020.39 1020.42 1020.52 1020.57 1020.38 1020.16 1019.72 1019.43 1019.19 1019.02 1018.89 1018.92 1018.89 1018.45 1018.17 1017.80 1017.87 1017.96 1017.97 1017.98 1017.80 1017.60 1017.38 1017.04 1016.72 1016.49 1016.17 1015.56 1015.22 1014.36
1020.89 1020.79 1020.53 1020.35 1020.16 1019.95 1019.78 1019.88 1019.84 1019.64 1019.79 1019.92 1019.95 1020.06 1020.09 1020.08 1020.08 1020.02 1019.87 1019.53 1019.29 1019.14 1018.93 1018.84 1018.51 1018.41 1018.36 1018.05 1017.86 1017.81 1017.76 1017.79 1017.73 1017.49 1017.30 1017.06 1016.72 1016.45 1016.33 1016.17 1015.87 1015.30 1014.83
1021.14 1020.90 1020.43 1020.17 1019.94 1019.68 1019.55 1019.62 1019.55 1019.40 1019.43 1019.51 1019.61 1019.66 1019.77 1019.77 1019.67 1019.57 1019.62 1019.39 1019.07 1018.86 1018.68 1018.65 1018.72 1018.33 1018.11 1017.92 1017.94 1017.73 1017.58 1017.58 1017.50 1017.31 1017.09 1016.82 1016.52 1016.40 1016.18 1015.99 1015.81 1015.64 1015.12
1021.18 1020.88 1020.52 1020.09 1019.60 1019.40 1019.33 1019.35 1019.23 1019.14 1018.99 1019.06 1019.09 1019.10 1019.08 1019.17 1019.21 1019.21 1019.06 1018.94 1018.79 1018.72 1018.53 1018.47 1018.46 1018.27 1018.00 1017.78 1017.83 1017.59 1017.37 1017.38 1017.34 1017.19 1017.07 1016.80 1016.52 1016.36 1016.15 1015.89 1015.58 1015.35 1015.26
1021.39 1020.88 1020.29 1019.86 1019.55 1019.34 1019.23 1019.03 1018.82 1018.79 1018.73 1018.68 1018.57 1018.63 1018.60 1018.50 1018.58 1018.71 1018.66 1018.52 1018.35 1018.41 1018.28 1018.23 1018.10 1018.03 1017.92 1017.81 1017.82 1017.60 1017.36 1017.23 1017.03 1016.93 1016.75 1016.63 1016.46 1016.29 1016.11 1015.94 1015.76 1015.50 1015.25
1020.93 1020.77 1020.40 1020.05 1019.67 1019.44 1019.11 1018.85 1018.53 1018.42 1018.22 1018.12 1018.25 1018.12 1018.15 1018.13 1018.23 1018.16 1017.97 1017.95 1018.01 1018.04 1017.97 1017.86 1017.77 1017.77 1017.82 1017.78 1017.75 1017.58 1017.44 1017.23 1016.83 1016.55 1016.25 1016.04 1015.98 1015.94 1015.86 1015.83 1015.81 1015.68 1015.47
1021.18 1020.87 1020.35 1020.08 1019.78 1019.48 1019.14 1018.73 1018.36 1018.12 1017.89 1017.76 1017.68 1017.60 1017.63 1017.67 1017.63 1017.60 1017.49 1017.43 1017.53 1017.56 1017.55 1017.52 1017.45 1017.53 1017.59 1017.64 1017.58 1017.45 1017.34 1017.09 1016.64 1016.33 1016.06 1015.85 1015.68 1015.54 1015.43 1015.29 1015.31 1015.26 1015.15
1021.39 1021.07 1020.63 1020.25 1019.92 1019.67 1019.29 1018.79 1018.34 1018.05 1017.69 1017.45 1017.34 1017.17 1016.98 1016.89 1016.90 1016.93 1016.97 1016.99 1017.05 1017.07 1017.06 1017.06 1017.15 1017.19 1017.28 1017.39 1017.30 1017.18 1017.08 1016.90 1016.54 1016.20 1015.87 1015.63 1015.49 1015.44 1015.39 1015.19 1014.99 1014.80 1014.83
1021.32 1021.15 1020.88 1020.45 1020.03 1019.61 1019.01 1018.53 1018.12 1017.81 1017.54 1017.27 1016.94 1016.61 1016.36 1016.36 1016.39 1016.38 1016.38 1016.51 1016.55 1016.57 1016.61 1016.67 1016.73 1016.72 1016.82 1016.88 1016.81 1016.80 1016.77 1016.65 1016.41 1016.10 1015.83 1015.60 1015.44 1015.37 1015.26 1015.15 1015.02 1014.98 1014.91
1021.35 1021.12 1020.77 1020.36 1019.96 1019.58 1019.19 1018.66 1018.17 1017.70 1017.37 1017.08 1016.74 1016.41 1016.20 1016.04 1015.98 1015.96 1016.00 1016.08 1016.11 1016.17 1016.24 1016.25 1016.29 1016.31 1016.29 1016.19 1016.16 1016.17 1016.26 1016.21 1016.12 1015.96 1015.61 1015.50 1015.35 1015.16 1015.10 1015.04 1015.01 1015.09 1015.02
1021.48 1021.16 1020.83 1020.47 1020.12 1019.76 1019.29 1018.79 1018.15 1017.61 1017.20 1016.77 1016.29 1016.06 1015.86 1015.76 1015.51 1015.43 1015.51 1015.49 1015.56 1015.71 1015.78 1015.74 1015.77 1015.73 1015.60 1015.54 1015.49 1015.50 1015.52 1015.61 1015.60 1015.57 1015.45 1015.25 1015.03 1014.90 1014.84 1014.77 1014.67 1014.70 1014.86
1021.54 1021.25 1020.97 1020.52 1020.02 1019.53 1019.06 1018.53 1017.97 1017.46 1017.02 1016.50 1016.05 1015.61 1015.45 1015.33 1015.22 1015.26 1015.10 1015.02 1015.04 1015.14 1015.17 1015.04 1015.01 1015.05 1014.78 1014.79 1014.80 1014.81 1014.84 1014.90 1014.86 1014.90 1014.92 1014.89 1014.69 1014.57 1014.57 1014.57 1014.60 1014.51 1014.61
1021.72 1021.44 1021.06 1020.60 1019.95 1019.47 1018.90 1018.41 1017.80 1017.29 1016.75 1016.24 1015.80 1015.34 1015.11 1014.92 1014.84 1014.80 1014.76 1014.68 1014.64 1014.50 1014.40 1014.22 1014.25 1014.38 1014.02 1014.07 1014.12 1014.23 1014.29 1014.36 1014.26 1014.24 1014.21 1014.23 1014.15 1014.03 1014.10 1014.22 1014.37 1014.42 1014.36
1021.71 1021.34 1020.83 1020.48 1020.04 1019.34 1018.84 1018.43 1017.79 1017.21 1016.62 1015.91 1015.35 1014.94 1014.85 1014.71 1014.48 1014.33 1014.26 1014.15 1014.14 1014.02 1013.88 1013.73 1013.57 1013.50 1013.43 1013.26 1013.28 1013.43 1013.64 1013.79 1013.66 1013.56 1013.39 1013.40 1013.37 1013.41 1013.49 1013.67 1013.97 1014.12 1013.86
1021.62 1021.23 1020.86 1020.48 1019.94 1019.33 1018.91 1018.43 1017.85 1017.22 1016.43 1015.76 1015.14 1014.59 1014.25 1014.39 1014.29 1014.10 1013.86 1013.71 1013.73 1013.70 1013.56 1013.41 1013.14 1013.08 1012.93 1012.60 1012.58 1012.65 1012.81 1012.87 1012.87 1012.84 1012.64 1012.42 1012.41 1012.44 1012.52 1012.70 1013.13 1013.24 1013.41
1021.33 1021.03 1020.83 1020.33 1019.67 1019.24 1018.88 1018.34 1017.66 1016.87 1016.26 1015.69 1015.18 1014.68 1014.25 1013.95 1013.64 1013.57 1013.34 1013.37 1013.43 1013.40 1013.27 1013.14 1012.86 1012.52 1012.18 1012.01 1011.86 1011.76 1011.68 1011.70 1011.98 1011.80 1011.58 1011.50 1011.64 1011.65 1011.70 1011.85 1012.03 1012.43 1012.80
1021.32 1020.84 1020.57 1020.08 1019.54 1019.05 1018.64 1018.21 1017.27 1016.53 1016.02 1015.51 1014.94 1014.54 1014.19 1013.88 1013.56 1013.45 1013.18 1012.98 1012.78 1012.80 1012.72 1012.78 1012.59 1012.13 1011.70 1011.58 1011.44 1011.15 1011.00 1010.92 1010.92 1010.84 1010.72 1010.78 1010.92 1011.01 1011.11 1011.21 1011.43 1011.78 1012.22
1021.10 1020.69 1020.31 1019.85 1019.24 1018.72 1018.24 1017.79 1016.98 1016.39 1015.99 1015.47 1014.86 1014.38 1014.01 1013.62 1013.37 1013.20 1013.02 1012.72 1012.55 1012.37 1012.14 1012.05 1011.89 1011.57 1011.30 1011.15 1010.87 1010.77 1010.63 1010.51 1010.44 1010.25 1010.18 1010.22 1010.29 1010.36 1010.46 1010.71 1010.85 1011.16 1011.61
1020.99 1020.66 1020.36 1019.79 1019.07 1018.38 1017.77 1017.26 1016.70 1016.28 1015.82 1015.32 1014.74 1014.26 1013.90 1013.58 1013.24 1012.91 1012.65 1012.36 1012.04 1011.81 1011.53 1011.32 1011.19 1011.13 1010.79 1010.41 1010.22 1010.14 1010.15 1010.06 1009.97 1009.97 1010.28 1010.31 1010.36 1010.33 1010.41 1010.59 1010.76 1010.95 1011.25
1020.85 1020.43 1020.14 1019.69 1018.84 1018.18 1017.41 1016.66 1016.29 1016.03 1015.70 1015.16 1014.65 1014.20 1013.76 1013.34 1013.04 1012.65 1012.12 1011.69 1011.32 1011.02 1010.81 1010.62 1010.57 1010.40 1010.17 1009.87 1009.68 1009.53 1009.43 1009.33 1009.25 1009.32 1009.70 1009.81 1009.89 1009.96 1010.01 1010.16 1010.27 1010.52 1010.77
Wind_Speed
5 5 5 6 5 3 3 4 2 3 0 1 2 1 2 2 2 3 5 5 5 5 4 3 4 3 3 3 3 3 3 2 2 3 4 4 4 1 3 4 4 5 6
5 5 3 5 5 3 5 4 4 3 2 1 1 2 1 2 3 3 5 4 5 5 4 4 4 4 3 4 4 2 3 2 3 2 2 4 5 4 9 4 4 6 5
8 6 5 5 4 5 6 5 4 4 3 2 0 1 1 1 2 3 3 3 5 5 5 4 3 4 2 3 3 3 3 2 3 3 1 3 2 7 3 6 4 7 5
4 4 4 5 6 7 5 5 5 4 4 2 1 2 2 2 2 3 3 4 3 4 5 5 4 4 2 3 2 2 2 0 3 3 0 2 3 2 5 5 4 4 8
4 4 5 6 5 5 6 5 5 5 4 3 3 3 3 3 2 3 6 3 3 3 4 4 5 4 3 4 4 2 2 1 2 1 2 2 3 3 3 4 7 4 4
6 5 3 3 5 5 5 4 5 6 5 5 5 5 5 5 4 4 4 3 3 3 3 4 4 4 4 4 3 2 3 3 3 2 3 2 2 3 2 3 6 7 5
6 6 6 5 5 7 7 6 6 8 6 6 6 6 6 6 6 5 4 4 3 3 4 3 4 4 4 4 3 2 3 3 3 3 3 3 3 3 4 6 5 3 4
7 7 7 7 7 8 7 6 7 8 6 7 7 6 6 4 4 5 4 4 3 4 3 5 5 4 5 4 4 1 1 2 3 4 2 3 3 2 3 4 5 6 2
7 8 9 8 8 7 7 5 6 7 7 7 6 6 6 6 6 6 5 4 4 4 4 4 6 6 5 4 5 2 2 2 3 4 4 2 2 3 3 3 3 2 4
9 8 7 8 7 7 6 7 6 7 6 7 6 6 6 6 6 5 6 6 5 5 5 5 5 5 5 5 5 4 2 2 3 3 4 4 3 4 3 3 3 2 3
8 7 8 8 7 6 7 8 7 7 7 6 6 6 6 6 6 5 6 6 4 5 5 5 5 5 5 5 5 5 4 4 4 3 3 4 4 3 3 3 3 3 2
8 8 7 7 7 7 7 7 6 6 6 6 6 7 6 6 6 6 6 5 5 5 5 5 4 4 5 4 5 5 5 5 4 4 4 4 2 3 2 2 3 2 3
9 8 8 7 7 7 7 7 7 7 6 6 6 7 7 6 7 7 6 5 6 6 5 5 5 5 5 5 5 4 5 6 5 5 4 5 4 4 3 3 4 3 2
6 6 8 8 7 7 7 7 8 6 6 6 6 7 7 7 7 7 6 6 6 6 6 5 5 5 5 5 5 5 5 5 5 5 5 4 3 3 3 4 4 3 3
6 7 7 8 7 8 8 7 7 7 6 7 6 7 7 6 6 6 6 6 6 6 6 5 6 6 5 5 6 5 5 5 6 6 5 5 5 5 5 3 3 3 2
7 8 8 9 9 9 9 8 8 8 5 7 8 7 6 6 6 6 6 6 6 6 6 6 6 6 5 10 12 9 6 6 5 6 5 5 7 5 6 7 3 1 2
7 9 9 9 9 9 9 9 10 7 7 7 7 7 6 6 7 6 6 7 7 5 7 7 6 7 7 13 14 13 6 6 6 6 5 5 4 6 4 6 8 4 4
8 11 10 11 10 7 9 8 8 7 8 8 7 7 6 7 6 6 7 6 5 6 6 7 7 7 7 14 15 14 7 6 7 7 6 6 6 6 6 5 5 5 4
8 7 8 9 9 10 10 7 10 7 7 8 8 7 6 6 6 7 7 6 5 5 6 6 7 7 8 12 14 11 6 6 8 7 7 7 7 10 12 5 6 6 5
6 8 10 8 8 10 8 8 9 8 8 8 8 7 6 6 7 6 6 5 5 6 4 6 7 10 9 12 14 11 4 7 6 6 7 14 10 14 15 7 6 6 6
9 8 8 9 10 10 9 10 9 10 9 9 8 7 4 5 6 6 3 4 5 5 6 6 6 7 8 9 14 15 6 7 5 6 6 6 15 16 16 15 7 8 4
8 8 7 9 10 8 6 10 10 10 9 9 8 7 7 5 4 5 5 5 5 6 6 5 6 5 6 12 13 17 18 14 7 9 7 7 14 15 15 13 14 15 10
8 8 7 10 9 9 6 10 11 11 9 9 8 6 7 6 5 5 6 4 4 4 5 4 4 6 4 4 12 16 17 16 10 7 11 13 14 15 12 16 15 15 5
6 6 8 10 10 8 8 8 10 9 9 9 8 6 6 7 5 4 4 4 4 4 4 4 5 5 4 4 4 4 5 10 7 9 8 9 11 12 9 8 9 5 5
9 7 8 10 12 11 11 8 10 8 8 8 7 6 4 5 5 5 4 4 5 5 4 4 4 4 5 4 6 6 4 4 6 6 1 2 3 3 4 3 4 4 4
10 10 9 10 13 13 14 13 8 6 8 9 6 5 5 4 4 4 6 6 10 11 10 11 9 5 11 14 14 13 13 13 13 3 4 4 5 6 6 6 6 6 9
Wind_Direction
280 261 259 212 198 207 211 228 251 275 189 19 351 4 309 308 314 326 323 319 323 323 324 310 312 319 319 310 309 305 338 307 313 325 304 309 300 330 311 307 311 305 299
282 284 266 199 196 199 228 244 238 262 230 178 212 211 242 278 273 301 309 323 332 334 326 330 321 319 318 328 331 346 316 294 356 315 284 342 335 337 325 329 323 309 307
282 268 243 215 214 233 236 243 245 243 239 205 216 324 287 306 333 319 314 322 328 337 333 319 316 321 307 305 301 301 348 322 310 323 260 348 333 324 339 321 336 326 328
292 263 238 221 222 243 248 258 254 243 242 201 206 219 215 268 243 256 264 294 321 329 333 331 332 318 302 318 312 291 302 326 294 322 110 241 235 295 318 321 318 344 314
341 306 240 235 250 260 255 258 259 251 251 232 221 224 249 236 262 283 285 292 293 300 335 329 322 330 338 317 291 295 309 235 265 222 297 294 249 217 246 302 320 312 288
347 344 327 280 272 274 270 261 252 257 247 233 229 228 249 257 267 281 288 287 298 313 323 318 324 327 322 310 300 1 313 281 258 269 269 254 277 280 299 284 312 304 298
346 330 314 300 289 285 278 262 244 262 242 238 241 238 242 238 246 254 263 283 289 282 298 311 305 305 309 307 342 20 351 332 298 294 284 273 265 265 281 288 299 304 290
334 310 293 286 280 279 274 272 263 265 243 238 245 247 245 228 234 244 255 270 269 290 318 301 297 298 303 314 308 315 352 359 327 333 299 283 297 290 269 284 302 317 299
311 291 291 282 279 278 285 282 282 267 255 242 241 242 243 238 238 243 251 259 276 272 273 289 293 297 295 300 293 313 329 338 312 311 324 315 309 322 320 294 264 253 309
333 318 297 292 287 274 280 295 282 268 263 239 229 235 230 235 243 245 246 249 263 266 271 274 279 292 301 311 301 295 270 282 313 305 325 330 321 321 324 333 327 266 240
297 311 314 309 296 298 299 291 284 275 266 245 241 240 243 235 231 235 249 251 253 256 256 259 273 284 299 302 302 303 300 292 297 288 296 311 309 324 338 348 338 337 336
328 313 304 309 323 316 310 301 295 276 264 254 248 244 243 236 237 238 237 235 244 251 248 256 266 280 286 295 296 298 307 296 293 290 293 278 255 281 286 323 331 307 309
333 335 352 351 340 332 323 319 317 300 288 260 246 244 240 232 235 237 239 230 235 243 254 250 254 264 271 278 277 273 287 284 278 279 283 286 297 295 303 287 296 278 267
336 336 351 342 333 322 310 314 310 307 301 286 261 251 242 232 230 234 235 229 229 238 241 244 249 250 257 259 263 258 274 288 294 291 279 277 272 277 304 309 307 308 301
342 338 328 318 313 319 320 316 306 308 309 305 291 267 258 239 240 238 233 235 232 236 236 243 249 250 245 244 242 244 254 265 284 294 300 299 290 291 289 287 322 330 310
326 325 318 321 323 321 315 309 301 302 306 294 281 283 276 254 243 242 238 238 242 242 240 240 238 250 245 244 253 247 235 249 256 273 286 287 293 269 288 281 252 300 309
314 316 314 308 304 306 308 299 298 300 296 282 280 279 274 264 247 238 234 234 234 232 241 242 234 244 242 251 255 254 234 234 239 248 260 273 257 260 261 281 258 241 251
320 324 317 314 311 299 303 296 304 300 300 296 285 277 268 262 268 256 242 243 226 228 232 236 232 240 248 248 252 249 237 234 236 234 239 244 256 249 249 260 269 268 249
300 288 296 294 303 308 306 310 313 307 302 301 292 288 272 269 266 252 254 249 234 237 231 228 236 232 254 243 248 245 234 240 245 236 232 232 243 248 249 239 251 264 259
303 310 316 309 305 313 315 315 310 310 306 307 298 294 294 270 267 256 260 243 231 250 244 253 232 237 250 247 246 242 216 240 246 239 240 247 238 246 243 227 220 247 244
312 314 317 313 306 309 318 317 310 309 302 303 295 295 292 283 283 289 257 264 261 262 261 254 257 242 236 258 255 249 223 230 236 236 246 229 240 242 239 231 199 219 195
322 320 317 314 314 306 309 313 311 304 306 309 305 303 302 293 281 264 274 270 266 267 269 275 280 256 251 251 259 255 245 235 222 239 238 235 237 236 233 230 223 227 231
309 308 307 311 310 312 311 312 309 315 311 313 305 302 307 300 294 290 290 292 252 244 263 259 268 276 272 260 268 266 264 255 243 234 240 240 236 236 236 236 227 226 195
311 308 316 318 313 312 306 289 301 305 311 305 303 305 311 312 312 300 282 275 271 269 253 251 258 265 270 274 266 261 270 279 273 264 254 238 230 223 219 228 235 200 191
321 324 316 315 313 317 310 302 303 310 310 307 303 302 298 301 304 291 268 268 256 237 259 251 244 267 284 259 264 273 267 246 249 273 308 264 241 238 231 229 219 213 197
323 323 322 323 324 325 322 324 318 306 305 308 300 297 298 299 298 303 308 268 270 284 273 267 254 263 254 278 288 285 281 280 276 250 199 223 218 230 230 226 223 213 222